This demonstration page uses our WeatherBlox Daily Observations layout. Learn more.

Left ArrowRight Arrow

34.74481, -87.66753

Hourly Observations for December 25, 2017

Temp ( °F °C ) Dew Point ( °F °C ) Humidity (%) Winds ( mph kmh ) Pressure ( in mb ) Visibility ( mi km ) Precip ( " mm )
12:53 am 00:53 Clear 30 -1.1 19 -7.2 64 64 NW 9 15 30.41 1030 10 16 0.00 0.00
1:53 am 01:53 Partly Cloudy 30 -1.1 18 -7.8 61 61 NNW 12 19 30.43 1031 10 16 0.00 0.00
2:53 am 02:53 Clear 28 -2.2 16 -8.9 60 60 NNW 13 20 30.43 1031 10 16 0.00 0.00
3:53 am 03:53 Clear 28 -2.2 16 -8.9 60 60 NNW 12 19 30.43 1031 10 16 0.00 0.00
4:53 am 04:53 Clear 28 -2.2 16 -8.9 60 60 N 7 11 30.43 1031 10 16 0.00 0.00
5:53 am 05:53 Clear 28 -2.2 16 -8.9 60 60 N 8 13 30.42 1030 10 16 0.00 0.00
6:53 am 06:53 Clear 28 -2.2 16 -8.9 60 60 NNW 7 11 30.47 1032 10 16 0.00 0.00
7:53 am 07:53 Sunny 28 -2.2 16 -8.9 60 60 VRB 7 11 30.46 1032 10 16 0.00 0.00
8:53 am 08:53 Sunny 29 -1.7 16 -8.9 58 58 NNW 7 11 30.50 1033 10 16 0.00 0.00
9:53 am 09:53 Sunny 30 -1.1 16 -8.9 56 56 VRB 6 9 30.55 1035 10 16 0.00 0.00
10:53 am 10:53 Sunny 31 -0.6 15 -9.4 52 52 NW 5 7 30.55 1035 10 16 0.00 0.00
11:53 am 11:53 Sunny 32 0 15 -9.4 50 50 Calm 30.51 1033 10 16 0.00 0.00
12:53 pm 12:53 Sunny 34 1.1 16 -8.9 48 48 VRB 3 6 30.47 1032 10 16 0.00 0.00
1:53 pm 13:53 Sunny 35 1.7 15 -9.4 44 44 Calm 30.45 1031 10 16 0.00 0.00
2:53 pm 14:53 Sunny 34 1.1 15 -9.4 46 46 E 5 7 30.46 1032 10 16 0.00 0.00
3:53 pm 15:53 Sunny 34 1.1 17 -8.3 50 50 ENE 6 9 30.46 1032 10 16 0.00 0.00
4:53 pm 16:53 Mostly Cloudy 34 1.1 16 -8.9 48 48 ENE 7 11 30.47 1032 10 16 0.00 0.00
5:53 pm 17:53 Clear 33 0.6 17 -8.3 52 52 ENE 7 11 30.46 1031 10 16 0.00 0.00
6:53 pm 18:53 Clear 33 0.6 16 -8.9 49 49 NE 7 11 30.47 1032 10 16 0.00 0.00
7:53 pm 19:53 Clear 33 0.6 16 -8.9 49 49 ENE 5 7 30.47 1032 10 16 0.00 0.00
8:53 pm 20:53 Clear 33 0.6 17 -8.3 52 52 NE 6 9 30.47 1032 10 16 0.00 0.00
9:53 pm 21:53 Clear 33 0.6 16 -8.9 49 49 ENE 6 9 30.45 1031 10 16 0.00 0.00
10:53 pm 22:53 Partly Cloudy 33 0.6 16 -8.9 49 49 ENE 6 9 30.45 1031 10 16 0.00 0.00
11:53 pm 23:53 Mostly Clear 32 0 17 -8.3 54 54 E 9 15 30.42 1030 10 16 0.00 0.00

Powered by AerisWeather